#timestamp,LO_Frequency,Hit 
1498287615.2,286047438.7,N
1498287635.0,286047438.5,N
1498287635.9,286047438.5,N
1498287655.8,286047438.4,N
1498287675.6,286047441.1,N
1498287695.4,286047440.5,N
1498287715.3,286047440.7,N
1498287735.1,286047440.7,N
1498287755.8,286047440.0,N
1498287775.7,286047440.3,N
1498287795.5,286047440.9,N
1498287815.4,286047438.5,N
1498287835.2,286047438.5,N
1498287885.1,286047438.4,Y
1498287895.9,286047222.7,N
1498287915.7,286047000.5,N
1498287935.6,286047000.6,N
1498287955.4,286047002.4,N
1498287975.2,286047000.2,N
1498287995.1,286047000.2,N
1498287996.0,286047000.2,N
1498288015.8,286047000.6,N
1498288035.6,286047000.1,N
1498288055.5,286047000.0,N
1498288075.3,286047000.6,N
1498288095.2,286047000.0,N
1498288115.9,286047000.1,N
1498288135.7,286047000.1,N
1498288155.6,286047000.4,N
1498288175.4,286047000.5,N
1498288195.2,286046999.7,N
1498288215.1,286047000.2,N
1498288216.0,286047000.2,N
1498288235.8,286047000.4,N
1498288255.7,286047001.0,N
1498288275.5,286047000.7,N
1498288295.3,286047000.6,N
1498288315.2,286047000.9,N
1498288335.0,286047000.2,N
1498288335.9,286047000.2,N
1498288355.7,286046999.8,N
1498288375.6,286047000.4,N
1498288395.4,286047000.4,N
1498288415.3,286047000.0,N
1498288435.1,286047002.8,N
1498288455.8,286047002.8,N
1498288475.7,286047002.7,N
1498288495.5,286047000.7,N
1498288515.4,286046999.9,N
1498288535.2,286047000.0,N
1498288555.0,286047002.8,N
1498288555.9,286047002.8,N
1498288575.8,286047000.2,N
1498288595.6,286047000.2,N
1498288615.4,286047002.8,N
1498288635.3,286047002.4,N
1498288655.1,286047002.3,N
1498288675.9,286046999.9,N
1498288695.7,286047000.0,N
1498288715.5,286047000.1,N
1498288735.4,286047002.8,N
1498288755.2,286047002.5,N
1498288775.1,286047000.5,N
1498288776.0,286047000.5,N
1498288795.8,286047000.5,N
1498288815.6,286047000.0,N
1498288835.5,286047000.3,N
1498288855.3,286047000.6,N
1498288875.1,286047000.2,N
1498288895.9,286047000.4,N
1498288915.7,286047001.0,N
1498288935.6,286047001.2,N
1498288955.4,286047001.1,N
1498288975.2,286047000.5,N
1498288995.1,286047000.4,N
1498288996.0,286047000.4,N
1498289015.8,286047000.4,N
1498289035.6,286047011.9,N
1498289055.5,286047002.5,N
1498289075.3,286047000.7,N
1498289095.2,286047001.1,N
1498289115.9,286046998.2,N
1498289135.7,286047000.8,N
1498289155.6,286046998.7,N
1498289175.4,286047000.6,N
1498289195.2,286047000.1,N
1498289215.1,286047000.3,N
1498289216.0,286047000.3,N
1498289235.8,286047000.6,N
1498289255.7,286047000.3,N
1498289275.5,286047000.1,N
1498289295.3,286046999.8,N
1498289315.2,286047002.7,N
1498289335.0,286046999.7,N
1498289335.9,286046999.7,N
1498289355.8,286047000.1,N
1498289375.6,286047000.9,N
1498289395.4,286047002.8,N
1498289415.3,286046999.7,N
1498289435.1,286046999.9,N
1498289455.8,286046999.7,N
1498289475.7,286047002.8,N
1498289495.5,286047011.9,N
1498289515.4,286047002.3,N
1498289535.2,286047000.1,N
1498289555.0,286047001.1,N
1498289555.9,286047001.1,N
1498289575.8,286046999.8,N
1498289595.6,286047001.1,N
1498289615.4,286047000.8,N
1498289635.3,286047000.5,N
1498289655.1,286047000.6,N
1498289675.9,286047000.7,N
1498289695.7,286046998.4,N
1498289715.5,286046998.4,N
1498289735.4,286046998.6,N
1498289755.2,286046998.9,N
1498289775.0,286046996.7,N
1498289775.9,286046996.7,N
1498289795.8,286046998.4,N
1498289815.6,286046999.3,N
1498289835.5,286047000.6,N
1498289855.3,286046998.5,N
1498289875.1,286046998.2,N
1498289895.9,286047001.0,N
1498289915.7,286047000.3,N
1498289935.6,286046998.5,N
1498289955.4,286047000.7,N
1498289975.2,286046998.3,N
1498289995.1,286046998.4,N
1498289996.0,286046998.4,N
1498290015.8,286047000.9,N
1498290035.9,286047000.9,N
1498290055.7,286046998.7,N
1498290075.5,286047000.9,N
1498290095.4,286046998.3,N
1498290115.2,286046998.3,N
1498290135.0,286046998.9,N
1498290135.9,286046998.9,N
1498290155.8,286046998.4,N
1498290175.6,286046998.9,N
1498290195.5,286046999.0,N
1498290215.3,286046999.0,N
1498290235.1,286046998.9,N
1498290255.9,286046998.1,N
1498290275.7,286046998.3,N
1498290295.5,286046998.4,N
1498290315.4,286046998.4,N
1498290335.2,286047001.2,N
1498290355.1,286046998.8,N
1498290356.0,286046998.8,N
1498290375.8,286046998.9,N
1498290395.6,286046998.6,N
1498290415.5,286046999.2,N
1498290435.3,286046997.2,N
1498290455.1,286046996.5,N
1498290475.9,286046998.8,N
1498290495.7,286046999.4,N
1498290515.6,286046999.2,N
1498290535.4,286046996.8,N
1498290555.2,286046997.0,N
1498290575.1,286046996.9,N
1498290576.0,286046996.9,N
1498290595.8,286046999.1,N
1498290615.6,286046999.3,N
1498290635.5,286046999.6,N
1498290655.3,286046999.6,N
1498290675.2,286046997.0,N
1498290695.9,286046996.5,N
1498290715.7,286046999.2,N
1498290735.6,286046999.5,N
1498290755.4,286046999.1,N
1498290775.2,286046999.9,N
1498290795.1,286046998.7,N
1498290796.0,286046998.7,N
1498290815.8,286046998.7,N
1498290835.7,286047001.2,N
1498290855.5,286046999.0,N
1498290875.3,286046997.0,N
1498290895.2,286046997.0,N
1498290915.0,286046999.3,N
1498290915.9,286046999.3,N
1498290935.8,286046999.2,N
1498290955.6,286046999.3,N
1498290975.4,286047000.8,N
1498290995.3,286047000.7,N
1498291015.1,286047000.5,N
1498291035.9,286047000.8,N
1498291055.7,286047001.2,N
1498291075.5,286047000.8,N
1498291095.4,286046999.0,N
1498291115.2,286046998.5,N
1498291135.0,286046998.1,N
1498291135.9,286046998.1,N
1498291155.8,286047001.2,N
1498291175.6,286046998.9,N
1498291195.5,286046998.3,N
